www.pogodaiklimat.ru

Погода и климат >> Архив погоды >> Австралия >> Новый Южный Уэльс >> Сидней


АРХИВ ПОГОДЫ в Сиднее

Время (UTC), дата Ветер
(напр.,м/с)
 
Видим.   Явления Облачность Т
(С)
Тd
(С)
f
(%)
Тe
(С)
Тes
(С)
Комфортность P
(гПа)
Po
(гПа)
Тmin
(С)
Tmax
(С)
R
(мм)
R24
(мм)
S
(см)
19 15.02 0 н/о н/о +19.1 +14.4 74 1021.0 1016.3
20 15.02 0 н/о н/о +18.9 +14.4 75 1021.5 1016.8
22 15.02 0 н/о н/о +22.6 +13.4 56 1021.8 1017.1
23 15.02 0 н/о н/о +26.1 +13.9 47 1021.8 1017.1
01 16.02 0 н/о н/о +27.1 +10.3 35 1020.8 1016.1 +18.9
02 16.02 0 н/о н/о +27.0 +9.8 34 1020.0 1015.3
04 16.02 0 н/о н/о +27.0 +13.7 44 1018.6 1013.9
05 16.02 0 н/о н/о +26.2 +14.6 49 1017.8 1013.1
07 16.02 0 н/о н/о +24.9 +13.8 50 1017.1 1012.4
08 16.02 0 н/о н/о +24.6 +15.5 57 1016.8 1012.1
10 16.02 0 н/о н/о +23.7 +16.5 64 1017.2 1012.5
11 16.02 0 н/о н/о +23.5 +16.5 65 1017.3 1012.6
13 16.02 0 н/о н/о +23.0 +15.8 64 1016.9 1012.2 +28.2
14 16.02 0 н/о н/о +22.2 +15.8 67 1016.3 1011.6
16 16.02 0 н/о н/о +20.5 +15.9 75 1014.9 1010.2
17 16.02 0 н/о н/о +20.2 +16.2 78 1014.5 1009.8
19 16.02 0 н/о н/о +19.5 +16.2 81 1014.2 1009.5
20 16.02 0 н/о н/о +19.5 +16.5 83 1014.6 1009.9
22 16.02 0 н/о н/о +24.3 +15.0 56 1014.9 1010.2
23 16.02 0 н/о н/о +27.3 +14.7 46 1014.8 1010.1
01 17.02 0 н/о н/о +27.1 +14.5 46 1013.8 1009.1 +19.4
02 17.02 0 н/о н/о +27.0 +15.7 50 1013.2 1008.5
04 17.02 0 н/о н/о +27.8 +15.1 46 1011.5 1006.8
05 17.02 0 н/о н/о +27.0 +16.0 51 1010.9 1006.3
07 17.02 0 н/о н/о +26.6 +15.3 50 1010.3 1005.7
08 17.02 0 н/о н/о +25.5 +16.1 56 1010.3 1005.7
10 17.02 0 н/о н/о +24.1 +17.6 67 1011.5 1006.8
11 17.02 0 н/о н/о +23.8 +18.0 70 1012.2 1007.5
13 17.02 0 н/о н/о +23.0 +17.5 71 1011.9 1007.2 +29.5
14 17.02 0 н/о н/о +22.5 +17.4 73 1011.5 1006.8
16 17.02 0 н/о н/о +21.7 +17.7 78 1010.2 1005.6
17 17.02 0 н/о н/о +21.7 +17.5 77 1009.7 1005.1
19 17.02 0 н/о н/о +21.5 +17.5 78 1009.9 1005.3
20 17.02 0 н/о н/о +21.6 +17.6 78 1010.1 1005.5
22 17.02 0 н/о н/о +24.4 +16.6 62 1010.8 1006.2
23 17.02 0 н/о н/о +27.8 +17.9 55 1010.7 1006.1
01 18.02 0 н/о н/о +26.8 +17.6 57 1009.6 1005.0 +21.4
02 18.02 0 н/о н/о +26.4 +17.2 57 1008.5 1003.9
04 18.02 0 н/о н/о +28.6 +16.8 49 1006.6 1002.0
05 18.02 0 н/о н/о +29.1 +17.0 48 1005.7 1001.1
07 18.02 0 н/о н/о +27.1 +17.0 54 1004.9 1000.3
08 18.02 0 н/о н/о +25.8 +17.2 59 1004.7 1000.1
10 18.02 0 н/о н/о +24.7 +17.9 66 1005.6 1001.0
11 18.02 0 н/о н/о +24.1 +18.1 69 1006.1 1001.5
13 18.02 0 н/о н/о +24.9 +15.2 55 1007.3 1002.7 +29.4
14 18.02 0 н/о н/о +24.0 +17.5 67 1006.8 1002.2
16 18.02 0 н/о н/о +23.2 +18.3 74 1007.6 1003.0
17 18.02 0 н/о н/о +23.1 +18.8 77 1005.7 1001.1
19 18.02 0 н/о н/о +22.8 +18.8 78 1005.6 1001.0
20 18.02 0 н/о н/о +22.9 +18.7 77 1005.4 1000.8
22 18.02 0 н/о н/о +25.6 +18.3 64 1005.9 1001.3
23 18.02 0 н/о н/о +28.3 +16.2 48 1006.1 1001.5
01 19.02 0 н/о н/о +26.4 +17.2 57 1006.6 1002.0 +22.4
02 19.02 0 н/о н/о +27.1 +18.4 59 1006.6 1002.0
04 19.02 0 н/о н/о +25.3 +16.2 57 1006.0 1001.4
05 19.02 0 н/о н/о +25.6 +17.3 60 1006.4 1001.8
07 19.02 0 н/о н/о +22.7 +16.5 68 1008.6 1004.0
08 19.02 0 н/о н/о +21.8 +16.7 73 1009.4 1004.8
10 19.02 0 н/о н/о +20.5 +16.9 80 1011.8 1007.1
11 19.02 0 н/о н/о +19.9 +16.9 83 1012.8 1008.1
13 19.02 0 н/о в посл. час дождь {туман} н/о +19.6 +17.4 87 1012.9 1008.2 +31.3
14 19.02 0 н/о н/о +19.5 +17.3 87 1012.7 1008.0
16 19.02 0 н/о в посл. час дождь {туман} н/о +19.2 +17.2 88 1011.4 1006.7
17 19.02 0 н/о н/о +19.2 +17.2 88 1010.9 1006.3
19 19.02 0 н/о в посл. час дождь {туман} н/о +19.1 +17.1 88 1011.2 1006.5
20 19.02 0 н/о н/о +19.0 +17.1 89 1011.6 1006.9
22 19.02 0 н/о в посл. час дождь {туман} н/о +19.8 +17.8 88 1012.0 1007.3
23 19.02 0 н/о н/о +19.8 +17.4 86 1012.2 1007.5
01 20.02 0 н/о в посл. час дождь {туман} н/о +19.8 +17.4 86 1011.8 1007.1 +19.0
02 20.02 0 н/о н/о +20.4 +17.4 83 1011.5 1006.8
04 20.02 0 н/о {туман} н/о +21.1 +17.1 78 1010.7 1006.1
05 20.02 0 н/о н/о +20.7 +17.3 81 1010.2 1005.6
07 20.02 0 н/о н/о +21.1 +17.9 82 1010.2 1005.6
08 20.02 0 н/о н/о +21.5 +18.9 85 1010.6 1006.0
10 20.02 0 н/о н/о +22.1 +19.3 84 1012.2 1007.5
11 20.02 0 н/о н/о +22.1 +19.3 84 1013.0 1008.3
13 20.02 0 н/о н/о +22.0 +18.8 82 1013.1 1008.4 +22.2
14 20.02 0 н/о н/о +22.0 +18.2 79 1013.2 1008.5
16 20.02 0 н/о н/о +22.0 +16.1 69 1012.8 1008.1
17 20.02 0 н/о н/о +21.7 +16.6 73 1012.8 1008.1
19 20.02 0 н/о в посл. час дождь {туман} н/о +20.6 +17.6 83 1013.6 1008.9
20 20.02 0 н/о н/о +20.5 +17.9 85 1014.3 1009.6
22 20.02 0 н/о {туман} н/о +20.9 +17.7 82 1015.8 1011.1
23 20.02 0 н/о н/о +21.1 +17.5 80 1016.3 1011.6
01 21.02 0 н/о н/о +20.9 +17.3 80 1017.0 1012.3 +19.9
02 21.02 0 н/о н/о +21.9 +17.5 76 1016.7 1012.0
04 21.02 0 н/о {туман} н/о +22.2 +17.6 75 1016.4 1011.7
05 21.02 0 н/о н/о +21.5 +16.9 75 1016.0 1011.3
07 21.02 0 н/о н/о +20.8 +17.0 79 1016.6 1011.9
08 21.02 0 н/о н/о +20.8 +17.2 80 1017.1 1012.4
10 21.02 0 н/о н/о +20.2 +17.0 82 1018.6 1013.9
11 21.02 0 н/о н/о +19.4 +17.0 86 1019.2 1014.5
13 21.02 0 н/о в посл. час дождь {туман} н/о +19.8 +17.6 87 1019.2 1014.5 +22.9
14 21.02 0 н/о н/о +20.1 +17.9 87 1019.1 1014.4
16 21.02 0 н/о {туман} н/о +19.6 +16.8 84 1018.6 1013.9
17 21.02 0 н/о н/о +19.8 +17.4 86 1018.3 1013.6
19 21.02 0 н/о в посл. час дождь {туман} н/о +19.0 +16.2 84 1018.8 1014.1
20 21.02 0 н/о н/о +18.8 +16.2 85 1019.5 1014.8
22 21.02 0 н/о {туман} н/о +19.4 +15.9 80 1020.3 1015.6
23 21.02 0 н/о н/о +20.7 +15.7 73 1020.6 1015.9
01 22.02 0 н/о н/о +21.1 +14.3 65 1020.8 1016.1 +18.8
02 22.02 0 н/о н/о +21.2 +15.3 69 1020.5 1015.8
04 22.02 0 н/о туман местами н/о +20.4 +15.6 74 1020.5 1015.8
05 22.02 0 н/о н/о +19.8 +16.8 83 1020.1 1015.4
07 22.02 0 н/о туман местами н/о +20.0 +16.2 79 1020.2 1015.5
08 22.02 0 н/о н/о +19.1 +16.0 82 1020.7 1016.0
10 22.02 0 н/о в посл. час дождь {туман} н/о +19.4 +15.9 80 1021.2 1016.5
11 22.02 0 н/о н/о +19.4 +15.7 79 1021.4 1016.7
13 22.02 0 н/о н/о +19.2 +15.3 78 1021.1 1016.4 +23.2
14 22.02 0 н/о н/о +19.3 +15.6 79 1021.0 1016.3
16 22.02 0 н/о в посл. час дождь {туман} н/о +18.7 +15.4 81 1020.0 1015.3
17 22.02 0 н/о н/о +18.7 +15.4 81 1019.7 1015.0

 

Местоположение метеостанции Сидней (Новый Южный Уэльс, Австралия): широта -33.93 долгота 151.18 высота над уровнем моря 5 м.

В архиве по умолчанию представлена погода в Сиднее за последнюю неделю. Архивные данные за месяц целиком и за предыдущие месяцы, начиная с января 2011 года, Вы можете получить, выбрав интересующий диапазон дат из раскрывающегося списка и нажав кнопку "Ввод!".


*Определитесь, кто Вы:
робот инопланетянин человек

Внимание! Время в таблицах - всемирное. Для получения местного времени необходимо прибавить поправку, которая равна 10 ч.

Смотрите также архив погоды в соседних городах и на ближайших метеорологических станциях:

Погода в Сидней аэропорту (Новый Южный Уэльс, Австралия) (2 км)
Погода в Кентербери (Новый Южный Уэльс, Австралия) (6 км)
Погода в Кернелле (Новый Южный Уэльс, Австралия) (8 км)
Погода в Литл Бэй (Новый Южный Уэльс, Австралия) (9 км)
Погода в Сидней Олимпик Парке (Новый Южный Уэльс, Австралия) (15 км)
Погода в Банкстауне (Новый Южный Уэльс, Австралия) (18 км)
Погода в Уаттамолле (Новый Южный Уэльс, Австралия) (23 км)
Погода в Холсворти (Новый Южный Уэльс, Австралия) (25 км)
Погода в Террей Хилс (Новый Южный Уэльс, Австралия) (28 км)
Погода в Хорсли-Парке (Новый Южный Уэльс, Австралия) (32 км)

Пояснения к столбцам:

Ветер - указаны скорость ветра в м/с - средняя за 10 мин, порывы в срок и между сроками (в фигурных скобках) и направление, откуда дует ветер: С - северный, СВ - северо-восточный, В - восточный, ЮВ - юго-восточный, Ю - южный, ЮЗ - юго-западный, З - западный, СЗ - северо-западный.
Видимость - горизонтальная дальность видимости в метрах или километрах. При видимости от 1 до 10 км при отсутствии осадков обычно наблюдается дымка, при ухудшении видимости до 1 км и менее - туман. В сухую погоду видимость может ухудшаться дымом, пылью или мглою.
Явления - указаны атмосферные явления, наблюдавшиеся в срок или в последний час перед сроком; фигурными скобками обозначены явления, наблюдавшиеся между сроками (за 1-3 часа до срока); квадратными скобками обозначены град или гололедные отложения с указанием их диаметра в мм.
Облачность - указаны через наклонную черту общая и нижняя облачность в баллах и высота нижней границы облаков в метрах; квадратными скобками обозначены формы облаков: Ci - перистые, Cs - перисто-слоистые, Cc - перисто-кучевые, Ac - высококучевые, As - высокослоистые, Sc - слоисто-кучевые, Ns - слоисто-дождевые, Cu - кучевые, Cb - кучево-дождевые. Подробнее классификацию облаков см. в Атласе облаков (PDF).
T - Температура воздуха - температура, измеренная на высоте 2 м над землей.
Td - Температура точки росы - температура, при понижении до которой содержащийся в воздухе водяной пар достигнет насыщения.
f - Относительная влажность воздуха - влажноcть воздуха, измеренная на высоте 2 м над землей.
Te - Эффективная температура - температура, которую ощущает одетый по сезону человек в тени. Характеристика душности погоды. При расчете учитывается влияние влажности воздуха и скорости ветра на теплоощущения человека.
Tes - Эффективная температура на солнце - температура, которую ощущает человек, с поправкой на солнечный нагрев. Характеристика знойности погоды. Зависит от высоты солнца над горизонтом, облачности и скорости ветра. Ночью, в пасмурную погоду, а также при ветре 12 м/с и более поправка равна нулю.
P - Атмосферное давление - приведенное к уровню моря атмосферное давление.
Po - Атмосферное давление - измеренное на уровне метеостанции атмосферное давление.
Tmin - Минимальная температура - минимум температуры воздуха на высоте 2 м над землей.
Tmax - Максимальная температура - максимум температуры воздуха на высоте 2 м над землей.
R - Количество осадков - Количество выпавших осадков за период времени, мм. При наведении курсора мыши на число - период времени, за который выпало указанное количество осадков.
R24 - Количество осадков - Количество выпавших осадков за 24 часа, мм.
S - Снежный покров - Высота снежного покрова, см. При наведении курсора мыши на число - состояние снежного покрова и степень покрытия местности в баллах.